STARLINK-33889, 63829

Orbit data source: Space-Track

STARLINK-33889, 63829 is a payload satellite owned by SpaceX/Seattle (US) in LEO that was launched on Sun, 04 May 2025 UTC via an FALCON 9 launch vehicle from the Air Force Eastern Test Range (AFETR). Payload-class satellites include a variety of spacecraft equipped with specific instruments for various scientific and technological missions. These include communications satellites like Starlink; space stations such as the ISS; scientific satellites like the Hubble; Earth observation satellites from companies like Planet Labs, Umbra, and HawkEye 360; GPS; miniature CubeSats for education and research; and military/defense satellites.

Loading next visibility...
Identifier
63829, 2025-092AB
Orbit
LEO
Last TLE update
10 hours ago
Origin
Manufacturer
SpaceX/Seattle
Mission
Operational Commercial Communications
Bus & Motor
STARLINK V2MO, Unknown motor
Mass
575 kg wet, ~530 kg dry
Launch date (UTC)
2025-05-04 (2 months ago)
Launch vehicle
FALCON 9
Launch site
Air Force Eastern Test Range (AFETR)
Object type
Payload
Rocket body
Debris
Shape & HBR
Box + 1 Pan, 29 m
Radar Cross Section
41.120 m², Large (>1 m²)

Expand to show TLE details & history

TLE from 10 hours ago
0 STARLINK-33889
1 63829U 25092AB  25189.18891951  .00024528  00000-0  89725-3 0  9998
2 63829  43.0021 113.1655 0001808 264.5590  95.5056 15.27603600 11169
Epoch: 2025-07-08T04:32Z
TLE epoch observation values (Epoch: 2025-07-08T04:32:02.645Z)
Latitude
0.00001°
Longitude
118.76701°
Altitude
482.873 km
Speed
7.626 km/s
True Right ascension
07h 32m 39s
True Declination
0° 00' 00"
Sunlit
Object was in daylight at epoch
Visualization orbit readout
Latitude
23.96296°
Longitude
-91.88793°
Altitude
483.34 km
Speed
7.627 km/s
Apparent Right ascension
16h 16m 30s
Apparent Declination
-7° 06' 06"
Sunlit
Object is in full shadow
Visualization observer readout
Local Sidereal Time
02:41:14
Azimuth
320.589° NNW
Elevation
-50.86°
Doppler factor
1
Orbital elements
Apogee altitude
486.164 km
Perigee altitude
483.682 km
Semi-major axis
6,863.06 km
Eccentricity
0.00018
Inclination
43.0021°
RAAN
113.1655°
Arg. of periapsis
264.559°
True anomaly
Unknown
Mean anomaly
95.5056°
Eccentric anomaly
Unknown
Mean motion
3.81739 °/min
Orbital period
94.31 mins
BSTAR
0.00089725
Loading maneuver chart data...
Loading SW <> Apogee altitude chart data...
Loading historical data...
Loading historical data...
Loading historical data...
Loading historical data...
Loading historical data...
Loading historical data...
Loading historical data...

STARLINK-33889 Visibility forecast

Observer location: undefined°, undefined°

Span
Click to sort rows by Start time (UTC) header in descending order
Start Az.
Max El. time (UTC)
Max El. Az.
Max El.
End time (UTC)
End Az.
6 mins2025-07-08 21:59:30.638Z208.226° SW2025-07-08 22:02:30.638Z144.974° SSE27.106°2025-07-08 22:05:30.638Z87.338° E
6 mins2025-07-08 23:38:30.638Z260.888° W2025-07-08 23:41:30.638Z33.431° NE42.728°2025-07-08 23:44:30.638Z70.365° E
5 mins2025-07-09 01:18:30.638Z297.134° NW2025-07-09 01:20:30.638Z13.348° NNE38.061°2025-07-09 01:23:30.638Z78.538° E
5 mins2025-07-09 02:57:30.638Z284.862° WNW2025-07-09 02:59:30.638Z182.591° SSW44.589°2025-07-09 03:02:30.638Z114.235° SE
4 mins2025-07-09 04:36:30.638Z246.525° WSW2025-07-09 04:38:30.638Z205.205° SW17.863°2025-07-09 04:40:30.638Z171.691° S
|